This is the latest recevied weather packets stored in our database for station/object AI5YA-13. If no packets are shown the sender has not sent any weather packets the latest 10 day(s).
| Time | Temp. | Humidity | Pressure | Rain* | Wind** | Luminosity | Snow |
|---|---|---|---|---|---|---|---|
| 1777079985 | 28.33° C | 13% | 1006.9 hPa | 0 mm | - | 6 W/m² | - |
| 1777079684 | 28.89° C | 13% | 1006.7 hPa | 0 mm | - | 11 W/m² | - |
| 1777079379 | 28.89° C | 13% | 1006.8 hPa | 0 mm | - | 16 W/m² | - |
| 1777079075 | 28.89° C | 13% | 1006.7 hPa | 0 mm | - | 23 W/m² | - |
| 1777078772 | 29.44° C | 12% | 1006.7 hPa | 0 mm | - | 30 W/m² | - |
| 1777078469 | 29.44° C | 12% | 1007 hPa | 0 mm | - | 35 W/m² | - |
| 1777078169 | 30° C | 12% | 1007 hPa | 0 mm | - | 40 W/m² | - |
| 1777077864 | 30° C | 12% | 1007.2 hPa | 0 mm | - | 43 W/m² | - |
| 1777077561 | 30° C | 12% | 1006.7 hPa | 0 mm | - | 43 W/m² | - |
| 1777077257 | 30.56° C | 11% | 1007 hPa | 0 mm | - | 58 W/m² | - |
| 1777076955 | 30.56° C | 11% | 1006.9 hPa | 0 mm | - | 79 W/m² | - |
| 1777076651 | 30.56° C | 11% | 1006.9 hPa | 0 mm | - | 90 W/m² | - |
| 1777076348 | 30.56° C | 11% | 1007 hPa | 0 mm | - | 102 W/m² | - |
| 1777076043 | 30.56° C | 11% | 1007 hPa | 0 mm | - | 106 W/m² | - |
| 1777075740 | 30.56° C | 11% | 1007.2 hPa | 0 mm | - | 122 W/m² | - |
| 1777075440 | 30.56° C | 11% | 1007 hPa | 0 mm | - | 145 W/m² | - |
| 1777075137 | 30.56° C | 11% | 1007.2 hPa | 0 mm | - | 155 W/m² | - |
| 1777074833 | 31.11° C | 10% | 1007.3 hPa | 0 mm | - | 174 W/m² | - |
| 1777074527 | 31.11° C | 10% | 1007.4 hPa | 0 mm | - | 181 W/m² | - |
| 1777074224 | 31.11° C | 10% | 1007.2 hPa | 0 mm | - | 214 W/m² | - |
| 1777073921 | 31.11° C | 10% | 1007.3 hPa | 0 mm | - | 243 W/m² | - |
| 1777073616 | 31.11° C | 9% | 1007.2 hPa | 0 mm | - | 239 W/m² | - |
| 1777073312 | 31.11° C | 9% | 1006.9 hPa | 0 mm | - | 104 W/m² | - |
| 1777073008 | 31.11° C | 9% | 1007 hPa | 0 mm | - | 243 W/m² | - |
| 1777072097 | 31.67° C | 9% | 1007.3 hPa | 0 mm | - | 272 W/m² | - |
* Rain latest hour (hover to see other rain measurements)
** Current wind speed in m/s (hover to see current wind gust speed)